User: anonymous   Login
Location: Caltech
(34.1382°N, 118.1253°W)
Time: 06:59:05
(UTC-08:00)
Language:

Iridium 75 - Orbit

View from above orbital plane
View from above orbital plane
View from above satellite
View from above satellite

Ground track
Ground track

The orbit data is extracted from the following two-line orbital elements,

1 25346U 98032E   17016.47918265  .00000033  00000-0  46710-5 0  9998
2 25346  86.3975 287.5271 0002087  84.3059  43.5695 14.34216080977923
Epoch (UTC): 16 January 2017 11:30:01
Eccentricity: 0.0002087
inclination: 86.3975°
perigee height: 776 km
apogee height: 779 km
right ascension of ascending node: 287.5271°
argument of perigee: 84.3059°
revolutions per day: 14.34216080
mean anomaly at epoch: 43.5695°
orbit number at epoch: 97792

The dashed part of the orbit path shows where the satellite is in the earth's shadow,  

DLR